Date,TemperatureHighF,TemperatureAvgF,TemperatureLowF,DewpointHighF,DewpointAvgF,DewpointLowF,HumidityHigh,HumidityAvg,HumidityLow,PressureMaxIn,PressureMinIn,WindSpeedMaxMPH,WindSpeedAvgMPH,GustSpeedMaxMPH,PrecipitationSumIn
2013-11-1,70,64,58,60,50,43,85,62,38,29.75,29.54,0,-999,0,0.10
2013-11-2,58,51,47,45,41,37,81,69,54,29.93,29.70,9,-425,23,0.01
2013-11-3,54,45,34,38,31,26,84,59,35,30.43,29.94,8,4,15,0.03
2013-11-4,36,32,27,28,26,22,88,79,68,30.59,30.43,5,2,8,0.01
2013-11-5,51,41,30,33,30,27,87,64,43,30.59,30.43,4,1,7,0.00
2013-11-6,68,52,34,52,43,29,98,74,54,30.43,30.06,9,3,19,0.00
2013-11-7,60,48,39,51,36,25,78,65,54,30.13,29.90,8,4,16,0.00
2013-11-8,46,40,30,29,26,25,80,58,45,30.30,30.11,11,4,19,0.00
2013-11-9,60,41,27,31,25,-100,91,59,28,30.30,30.03,6,2,10,0.00
2013-11-10,54,48,40,36,30,24,61,49,32,30.27,30.01,13,6,29,0.00
2013-11-11,61,45,29,31,22,7,87,49,12,30.29,30.03,9,3,20,0.00
2013-11-12,36,32,28,27,22,17,81,66,51,30.43,30.22,8,5,17,0.01
2013-11-13,37,30,25,23,19,15,84,62,47,30.50,30.37,8,4,21,0.01
2013-11-14,59,41,24,21,16,7,71,40,16,30.37,30.22,8,3,17,0.00
2013-11-15,61,49,33,40,22,18,82,38,19,30.27,30.16,6,2,10,0.01
2013-11-16,63,50,40,49,43,-100,99,81,60,30.29,30.17,3,1,5,0.04
2013-11-17,62,56,49,56,52,46,93,85,75,30.18,29.70,9,4,18,0.06
2013-11-18,59,54,45,56,36,28,91,52,31,29.99,29.70,12,7,26,0.13
2013-11-19,43,37,29,29,26,23,78,63,51,30.37,30.01,8,4,24,0.00
2013-11-20,46,32,23,27,22,19,92,68,35,30.51,30.36,6,2,10,0.00
2013-11-21,48,35,25,35,28,20,87,76,60,30.50,30.34,4,2,8,0.00
2013-11-22,55,48,39,53,44,35,96,86,80,30.34,30.06,6,2,13,0.01
2013-11-23,48,37,26,44,26,-100,87,68,49,30.22,30.10,8,5,20,0.02
2013-11-24,24,21,15,14,9,7,77,61,49,30.48,30.25,9,4,16,0.00
2013-11-25,40,26,12,21,12,7,85,59,31,30.48,30.24,4,1,7,0.00
2013-11-26,35,33,32,32,28,18,98,82,52,30.25,29.69,5,2,10,1.17
2013-11-27,35,31,23,33,28,15,99,87,69,30.05,29.61,3,0,6,0.73
2013-11-28,33,26,22,25,18,13,88,72,53,30.41,30.05,9,4,17,0.01
2013-11-29,41,31,24,25,23,20,90,72,47,30.65,30.41,8,2,11,0.02
2013-11-30,35,26,18,26,20,-100,95,83,67,30.65,30.32,4,1,6,0.01